Погода в Гомеле

Погода в Гомеле : погода сейчас, прогноз погоды и архив. Всё, что Вы хотите узнать о погоде в Гомеле!

Хотите узнать прогноз погоды в Гомеле? Тогда Вам сюда: Погода в Гомеле

Поиск расширенной информации на нашем сайте:

Другие новости

Новости СМИ2

Главная страница сайта

Новости сайта

03.07.2017

Напоминаем, что на нашем специализированном сайте Метеоцентр.Азия вы можете получить высокодетализированные автоматические прогнозы погоды по пунктам России, СНГ и мира в авиационном формате (включающие направление и скорость ветра, видимость, явления погоды, количество и форму облачности, нижнюю и верхнюю границу облачности).


Погода в Гомеле - сегодня

Время (UTC), дата Ветер
(°,м/с) 
Видим.   Явления Облачность Т
(°С)
Тd
(°С)
f(%) Тe
(°С)
Pmin
(гПа)
dP
(гПа)
Po
(мм)
O2
(г/м3)
Тmin Tmax R s Состояние
почвы
12 13.07.18 270 (З) 28000 м    8/5 1000 м кучево-дожд., средняя, верхняя 
[Cb cap|Ac trans|Ci fib]
+26.8 +17.8 58 +41  1008.6  -1.4  746  270           
15 13.07.18 240 (ЮЗ) 35000 м    9/6 1000 м кучево-дожд., средняя, верхняя 
[Cb cap|Ac trans|Ci fib]
+27.3 +16.2 51 +38  1008  -0.6  745  270           
18 13.07.18 230 (ЮЗ) 1{10}  8000 м  гроза, ливневой дождь  10/8 720 м кучево-дожд., средняя, верхняя 
[Cb cap|Ac trans|Ci]
+19.7 +18.5 93 +37  1009  0.6  746  276    +28.2     
21 13.07.18 230 (ЮЗ) 10 км  {гроза, ливн. осадки}  8/0 средняя, верхняя 
[Ac trans|Ci]
+19.1 +17.9 93 +35  1009.6  0.5  746  277      0.0     
00 14.07.18 310 (СЗ) 10 км  {гроза, ливн. осадки}  8/0 средняя, верхняя 
[Ac trans|Ci]
+17.8 +15.6 87 +29  1008.8  -0.8  746  279           
03 14.07.18 290 (З) 10 км    9/0 средняя, верхняя 
[Ac trans|Ci]
+16.9 +15.3 90 +27  1009.3  0.4  746  280      0.0     
06 14.07.18 330 (СЗ) 35000 м    9/0 средняя, верхняя 
[Ac trans|Ci]
+19.6 +15.7 78 +31  1008.7  -0.4  746  277  +16.7    0.0     
09 14.07.18 200 (Ю) 27000 м    9/4 1000 м кучево-дожд., средняя, верхняя 
[Cb calv|Ac trans|Ci]
+22.5 +16.4 68 +34  1008.2  -0.3  745  274           
12 14.07.18 250 (З) 35000 м    6/4 1000 м кучево-дожд., средняя, верхняя 
[Cb calv|Ac trans|Ci]
+25.3 +13 46 +31  1006.9  -1.2  744  272           
15 14.07.18 120 (ЮВ) 27000 м    8/6 960 м кучево-дожд., средняя, верхняя 
[Cb calv|Ac trans|Ci]
+23.6 +14.3 56 +31  1006.1  -0.8  744  273           
18 14.07.18 330 (СЗ) 30000 м    10/8 1050 м кучево-дожд., средняя 
[Cb calv|Ac As]
+21.3 +14.4 65 +29  1006.9  0.6  744  275    +25.8       
21 14.07.18 330 (СЗ) 29000 м    8/0 средняя 
[Ac trans]
+18.2 +13.7 75 +27  1007.1  744  278           
00 15.07.18 310 (СЗ) 10 км    6/0 средняя 
[Ac trans]
+15.3 +13.5 89 +23  1007.1  -0.1  744  281           
03 15.07.18 340 (С) 12000 м    4/0 средняя, верхняя 
[Ac trans|Ci fib]
+15.4 +13.3 87 +23  1007.2  0.1  744  281           
06 15.07.18 190 (Ю) 20000 м    3/0 верхняя 
[Ci fib]
+20.4 +16.1 76 +31  1006.7  -0.2  744  275  +15.1         
09 15.07.18 090 (В) 35000 м    8/5 1000 м средняя, верхняя 
[Cu med, cong|Ac trans|Ci fib]
+25.1 +12.2 45 +29  1006.5  744  272           
12 15.07.18 300 (СЗ) 30000 м  гроза без осадков  8/6 1020 м кучево-дожд., средняя 
[Cb cap|Ac trans]
+24 +14.8 56 +33  1005.6  -0.9  743  272           
15 15.07.18 090 (В) 1{10}  3100 м  гроза, ливневой дождь  9/8 840 м кучево-дожд., средняя 
[Cb cap|Ac trans]
+18.8 +17.6 93 +34  1006.8  0.9  744  276         
18 15.07.18 050 (СВ) 19000 м  {гроза, ливн. осадки}  8/4 600 м кучево-дожд., средняя, верхняя 
[Cb cap|Ac trans|Ci fib]
+19.5 +18.4 93 +36  1006.8  744  276    +26.3     
21 15.07.18 040 (СВ) 10 км    4/0 средняя, верхняя 
[Ac trans|Ci fib]
+17.3 +16.5 95 +31  1006.6  -0.3  744  278           
00 16.07.18 тихо ()   8000 м  дымка  4/3 600 м средняя, верхняя 
[Sc|Ac trans|Ci fib]
+16.5 +16.1 97 +27  1006.8  0.1  744  279           
03 16.07.18 040 (СВ) 7000 м  дымка  9/9 800 м 
[Sc]
+17.3 +16.7 96 +31  1006.6  -0.1  744  278           
06 16.07.18 130 (ЮВ) 28000 м    10/10 500 м 
[Sc]
+18.9 +17.1 89 +33  1006.4  -0.1  744  276  +16.4         
09 16.07.18 320 (СЗ) 3200 м  ливневой дождь  10/10 270 м кучево-дожд. 
[Cb cap]
+18.2 +17.9 98 +34  1006.6  0.1  744  277         
12 16.07.18 350 (С) 10 км  в посл. час ливневой дождь  9/9 300 м кучево-дожд., средняя 
[Cb cap|Ac und]
+19.6 +17.8 89 +35  1005.8  -0.7  743  275         
Время (UTC), дата Ветер
(°,м/с) 
Видим.   Явления Облачность Т
(°С)
Тd
(°С)
f(%) Тe
(°С)
Pmin
(гПа)
dP
(гПа)
Po
(мм)
O2
(г/м3)
Тmin Tmax R s Состояние
почвы

Для получения пояснительной информации подведите курсор к названию столбца.

ПОГОДА в Гомеле - архив

Всё, что Вы хотите узнать о погоде в Гомеле - удобно и подробно!

Выберите нужную дату (начиная с 1 января 2015* года) и нажмите кнопку "Найти".
Будут отображены архивные сводки погоды по пункту Гомель, начиная с указанной даты.


Отображать данные в формате CSV (для использования в таблицах Excel)


Внимание! Наш архив погоды предназначен исключительно для личного некоммерческого использования в познавательных целях. Если Вам необходимы официальные справки о состоянии погоды (для производственных, юридических, коммерческих и т.п. целей), обращайтесь в органы Росгидромета.

*Примечание: данная дата относится к архиву по метеостанциям СССР (Россия, СНГ, Балтия).
Архив по метеостанциям Зарубежной Европы и Азии (кроме Китая) хранится 10 дней, по другим регионам земного шара (Китай, Африка, Америка, Австралия, Океания) - 1 день.

Гомель - район местоположения метеостанции


Название, широта, долгота, высота метеостанции:
Гомель (город) 52.4°ш. 30.9°д. 126 м над ур. моря [Беларусь]

Дополнительная информация

В oтличие oт бoльшинства пoгoдных сайтoв мы публикуем пoдрoбную метеoинфoрмацию в детальнoм прoфессиoнальнoм фoрмате.

Характеристики температуры и влажнoсти вoздуха измеряются на высoте 2 м в тени вдали oт зданий и деревьев.
Скoрoсть ветра измеряется на высoте 10 м (на урoвне рoста челoвека скoрoсть ветра ниже в 1.5-2 раза). Если метеoстанция нахoдится в гoрoде или в лесу, тo скoрoсть ветра занижена на 2-4 м/с пo сравнению с oткрытым местoм. Скoрoсть ветра над акватoриями крупных рек и oзёр, а также на вершинах хoлмoв на 2-5 м/с выше, чем в oбычных услoвиях.
Атмoсфернoе давление в разных тoчках местнoсти мoжет значительнo oтличаться oт давления на метеoстанции, в зависимoсти oт услoвий рельефа (при пoдъёме на 10 м давление пoнижается примернo на 1 мм рт.ст.).